Regional Weather Roundup
Issued by NWS Raleigh/Durham, NC

Home | Current Version | Previous Version | Text Only | Print | Product List | Glossary On
Versions: 1 2 3 4 5 6 7 8 9 10 11 12 13 14 15 16 17 18 19 20 21 22 23 24 25 26 27
000
ASUS42 KRAH 180110
RWRRAH
NORTH CAROLINA WEATHER ROUNDUP
NATIONAL WEATHER SERVICE RALEIGH NC
900 PM EDT THU APR 17 2014

NOTE: "FAIR" INDICATES FEW OR NO CLOUDS BELOW 12,000 FEET WITH NO
SIGNIFICANT WEATHER AND/OR OBSTRUCTIONS TO VISIBILITY.

NCZ001-053-055-056-065-067-180200-
WESTERN NORTH CAROLINA

CITY           SKY/WX    TMP DP  RH WIND       PRES   REMARKS
ASHEVILLE      PTCLDY    50  27  40 S5        30.41R
JEFFERSON      CLEAR     45  19  34 CALM      30.42R
MORGANTON      CLEAR     45  33  62 NE3       30.46R
HICKORY        CLEAR     53  28  38 E5        30.41R
RUTHERFORDTON  PTCLDY    54  29  38 CALM      30.42R
MOUNT AIRY     CLEAR     49  32  50 CALM      30.43S
BOONE          CLEAR     41  25  51 CALM      30.42S
$$

NCZ021-022-025-041-071-084-088-180200-
CENTRAL NORTH CAROLINA

CITY           SKY/WX    TMP DP  RH WIND       PRES   REMARKS
CHARLOTTE      PTCLDY    59  26  28 E5        30.41R
GREENSBORO     PTCLDY    52  27  38 E6        30.42S
WINSTON-SALEM  CLEAR     52  26  36 NE5       30.44S
RALEIGH-DURHAM PTCLDY    53  37  54 E3        30.45R
FORT BRAGG     CLEAR     54  45  71 N3        30.42S
FAYETTEVILLE   CLEAR     54  43  66 NE7       30.41S
CHAPEL HILL    CLEAR     50  38  63 CALM      30.45R
BURLINGTON     CLEAR     51  30  44 N3        30.43S
LAURINBURG     CLEAR     53  43  68 NE8       30.40F
$$

NCZ011-015-027-028-043-044-047-080-103-180200-
NORTHEASTERN NORTH CAROLINA

CITY           SKY/WX    TMP DP  RH WIND       PRES   REMARKS
GREENVILLE     CLEAR     50  41  71 E7        30.47R
WASHINGTON     CLEAR     49  42  77 NE8       30.48R
ELIZABETH CITY CLOUDY    46  40  79 NE21G26   30.50S
MANTEO         PTCLDY    46  43  89 NE18G29   30.46F
CAPE HATTERAS  CLEAR     50  47  89 NE12G22   30.42R
$$

NCZ078-087-090-091-093-098-101-180200-
SOUTHEASTERN NORTH CAROLINA

CITY           SKY/WX    TMP DP  RH WIND       PRES   REMARKS
LUMBERTON      CLEAR     56  44  64 NE7       30.39F
GOLDSBORO      CLEAR     55  46  72 E13       30.44R
KINSTON        CLEAR     54  43  66 E12       30.48R
KENANSVILLE    CLEAR     55  44  65 NE7       30.45R
NEW BERN       MOCLDY    53  42  66 NE17G23   30.47R
CHERRY POINT   PTCLDY    53  41  63 NE12      30.46R
BEAUFORT       CLOUDY    53  44  71 N14G22    30.44R
JACKSONVILLE   CLOUDY    56  44  64 NE10      30.43R
WILMINGTON     CLEAR     58  47  66 NE10      30.41R
$$




USA.gov is the U.S. government's official web portal to all federal, state and local government web resources and services.